Theta_e
324 323 322 323 322 321 322 322 321 318 318 318 318 319 317 317 312 308 311 312 314 314 312 312 312 312 312 312 312 314 313 314 316 314 315 316 316 313 312 311 313 312 311 312 310 308 308 309 309 312 314 315 316 316 313 311 309 309 311 314 314 313 311 310 310 313 314 314 313 311 309 309 309 308
323 323 322 322 322 322 322 322 321 317 317 317 317 318 319 318 314 312 311 311 313 314 309 312 313 309 311 311 311 312 312 313 314 311 312 314 315 311 310 310 308 307 309 309 306 306 307 308 310 312 312 313 312 310 310 308 307 309 311 314 316 313 312 310 310 312 312 313 311 309 309 308 308 308
324 323 323 322 322 321 321 321 321 318 316 316 316 317 316 316 317 314 313 310 311 314 312 309 309 310 309 310 311 311 311 313 314 311 311 311 311 312 312 309 308 308 307 306 305 307 307 306 307 309 310 312 311 310 311 309 308 310 312 310 311 312 313 312 311 313 314 313 311 310 309 308 308 309
324 323 323 321 322 321 321 321 321 319 317 316 315 315 315 314 313 313 311 310 310 309 314 313 307 309 309 309 309 310 309 310 313 310 310 310 310 313 314 309 307 308 306 306 306 310 310 306 307 308 309 310 311 310 311 309 309 310 307 307 308 308 311 311 311 311 312 312 312 312 312 310 309 309
323 323 323 322 321 321 322 321 321 320 318 315 315 314 313 312 311 311 310 308 305 305 307 310 306 306 309 307 309 309 309 310 312 309 308 309 310 311 312 312 308 306 305 305 305 304 304 305 308 307 306 308 308 309 307 306 306 304 305 305 307 308 310 311 311 311 311 312 313 313 313 312 309 309
324 323 323 322 321 321 322 321 321 320 318 317 314 313 312 311 310 312 309 307 306 305 305 306 304 305 308 308 308 309 308 309 310 309 307 306 307 309 310 310 311 305 306 304 303 304 303 302 303 303 302 302 303 304 304 304 304 304 303 301 304 308 310 310 309 310 312 312 313 313 312 311 310 309
324 323 322 322 320 320 321 321 322 321 320 318 315 313 312 311 309 309 310 308 306 304 304 305 304 305 306 309 307 308 308 309 309 308 308 306 306 307 308 308 308 304 303 303 302 302 302 302 302 301 301 301 301 302 302 303 303 302 302 300 301 303 306 307 308 309 311 312 312 312 311 311 309 308
324 323 323 322 320 320 320 320 321 321 321 320 317 315 313 312 309 309 309 311 308 305 304 303 304 304 306 305 304 307 307 307 308 309 308 306 305 306 306 306 307 305 303 302 302 303 302 302 302 301 301 301 301 301 301 301 302 302 301 301 301 301 302 303 303 305 307 310 310 310 310 311 310 309
324 324 324 323 321 320 320 319 320 321 321 321 320 317 315 312 311 309 308 308 307 305 305 305 304 305 304 304 303 306 305 304 306 307 307 306 305 305 305 305 305 305 303 302 302 301 301 302 302 301 301 301 301 301 301 301 301 301 302 301 301 301 301 302 304 305 305 306 307 309 310 310 310 309
324 325 324 323 322 321 321 320 320 321 322 321 320 320 317 314 313 310 308 307 307 307 306 306 304 304 304 303 304 304 306 304 303 304 305 306 306 305 305 305 304 305 304 305 304 303 302 302 301 302 302 301 301 301 301 301 301 301 301 301 301 301 300 300 302 303 302 304 305 306 308 308 310 309
323 324 324 324 322 322 322 321 320 320 321 321 321 320 320 318 315 312 309 306 305 306 305 305 306 305 304 305 304 302 304 303 304 304 304 304 304 306 306 306 305 306 306 304 301 302 303 303 304 302 301 301 301 301 301 301 301 300 300 299 299 298 299 299 299 302 303 303 303 304 304 305 306 308
322 322 323 323 322 323 323 322 321 321 321 321 321 320 320 318 316 314 312 307 305 305 305 305 304 304 304 304 303 300 301 301 301 301 303 303 303 304 306 307 307 308 307 307 306 303 302 302 303 301 302 302 302 302 302 302 302 301 300 299 299 300 299 299 299 300 301 302 302 301 300 302 304 303
320 321 321 321 322 323 321 315 315 316 317 320 320 319 318 317 316 315 312 310 306 306 305 304 304 304 303 304 302 300 301 301 303 304 303 303 304 304 304 305 306 306 307 308 307 306 308 306 308 306 306 306 305 304 303 304 303 302 300 300 300 300 300 300 300 301 301 301 302 301 300 301 302 300
319 319 319 321 319 316 313 308 304 305 307 311 317 319 316 314 311 311 311 308 307 306 304 304 304 303 303 303 303 302 303 305 306 303 302 302 303 304 303 305 306 307 307 307 307 308 309 309 308 308 307 309 309 309 309 308 306 303 300 300 300 300 299 300 300 300 301 300 300 300 300 300 300 299
316 313 313 316 317 314 309 304 297 296 298 301 302 307 310 314 314 311 309 309 307 306 305 304 303 304 303 304 305 304 304 305 305 304 302 303 303 303 302 303 307 309 308 307 306 307 311 309 307 308 308 309 310 309 309 303 302 301 300 300 300 300 300 300 300 299 299 299 299 299 299 299 299 299
314 311 310 310 311 310 308 306 303 300 295 294 294 295 296 297 300 304 310 310 306 306 305 303 303 304 303 303 304 304 305 305 304 304 303 303 303 302 302 302 303 310 306 308 306 307 309 308 309 309 308 309 310 309 305 302 300 300 300 300 300 300 300 300 300 299 299 299 298 298 298 299 298 298
311 309 309 309 310 309 312 309 304 303 300 297 295 296 296 295 293 291 293 298 309 308 307 305 304 304 304 304 305 305 307 306 306 304 303 303 303 303 304 304 303 308 307 308 306 306 309 306 308 307 310 310 310 309 303 301 300 300 300 299 299 299 299 299 299 299 299 299 299 299 299 299 299 298
308 308 308 307 307 309 309 308 307 306 305 304 302 300 299 299 298 296 295 294 296 303 308 308 308 307 307 310 309 308 308 309 309 307 306 305 305 303 305 307 306 308 306 311 308 306 311 308 306 307 311 311 311 311 305 300 300 300 299 299 298 298 298 298 298 298 298 298 298 298 299 299 298 298
304 306 307 307 307 307 309 310 308 305 302 300 299 298 298 298 298 297 297 299 301 302 303 304 303 303 303 304 303 304 306 309 309 310 311 309 311 309 308 308 307 310 308 308 308 308 310 305 308 310 311 311 311 312 306 303 302 301 300 299 298 298 298 297 297 297 297 297 297 297 297 297 297 297
299 300 303 305 306 307 308 303 299 300 301 300 299 298 298 298 299 298 297 294 295 298 300 300 300 299 299 297 300 301 303 305 306 307 308 309 307 308 307 307 304 307 307 307 308 305 307 309 307 310 312 312 312 314 314 306 303 301 300 299 298 298 297 296 296 296 296 296 297 297 296 296 296 295
298 298 298 300 302 303 304 298 296 296 298 300 299 298 298 298 297 297 299 296 294 293 293 293 293 293 294 294 294 294 295 300 304 306 307 305 304 306 306 304 304 307 305 307 307 307 305 309 308 308 311 310 309 312 313 314 304 300 299 299 299 298 297 297 296 296 296 296 296 296 296 295 295 295
299 301 300 299 298 298 297 293 293 293 298 299 299 298 298 298 297 297 298 299 298 295 295 294 294 294 294 295 295 295 295 296 300 305 302 303 302 302 301 302 301 303 303 305 306 303 304 307 307 306 308 309 307 308 311 309 309 303 303 301 299 298 297 296 295 295 296 296 295 295 295 295 295 297
295 295 296 297 297 297 294 291 292 293 297 299 299 300 299 297 296 296 297 299 299 299 299 299 299 298 298 300 299 299 295 296 299 302 302 302 302 300 299 299 299 300 302 303 304 301 302 303 305 305 303 302 305 308 306 308 310 310 308 307 308 298 296 295 294 294 295 296 296 296 295 295 295 299
295 295 295 294 290 290 290 290 290 291 293 298 300 300 299 297 295 296 298 298 298 297 296 296 297 296 297 297 298 298 298 298 299 299 300 301 301 300 300 300 299 299 300 303 301 300 300 302 302 304 304 300 297 307 309 308 309 308 309 306 307 301 297 297 296 295 294 295 295 295 295 295 296 298
294 294 294 294 292 291 291 291 291 292 292 294 299 300 299 298 297 296 297 296 295 296 296 296 295 295 295 295 296 296 296 296 296 297 297 298 300 300 299 298 297 298 301 302 297 300 298 299 300 302 303 302 303 302 304 304 306 306 305 301 301 303 301 301 298 300 295 294 294 295 295 295 295 297
294 294 294 294 292 290 291 291 291 292 292 293 296 294 291 291 292 297 296 296 296 295 295 294 294 294 293 293 293 294 294 294 295 295 296 296 297 298 298 298 297 296 297 300 295 299 297 297 299 298 299 298 298 299 298 300 304 306 302 301 300 300 299 299 300 299 299 299 299 296 296 294 295 294
293 294 293 294 292 290 290 291 291 291 292 293 293 290 290 290 291 293 295 294 294 293 293 293 292 291 292 292 292 292 292 293 293 293 294 294 295 295 295 296 296 296 297 298 299 297 295 295 296 296 296 296 295 296 297 297 300 303 303 303 301 300 298 298 298 298 298 298 298 294 293 293 293 293
293 293 292 292 290 290 290 290 290 290 291 292 290 290 290 291 292 294 294 293 293 292 291 291 291 290 291 291 291 290 291 291 292 292 292 293 293 292 292 293 295 296 297 297 297 295 294 293 294 296 296 294 293 293 294 298 299 300 299 300 299 298 297 297 297 297 296 297 297 297 296 295 296 296
293 291 290 290 290 290 290 290 290 290 290 289 290 290 291 294 294 294 293 293 292 291 290 289 290 289 289 290 290 291 291 291 291 291 291 292 292 291 292 293 294 295 295 295 295 295 295 294 294 294 294 294 293 294 295 295 296 298 298 296 296 299 298 297 296 297 296 296 296 296 295 295 294 295
290 290 290 290 291 291 292 293 292 291 291 289 290 290 292 293 292 292 292 292 291 290 289 288 288 288 289 289 289 290 290 289 287 288 288 289 290 290 291 293 294 294 295 295 295 295 295 295 294 293 292 294 294 294 296 294 295 298 297 296 296 297 297 296 296 296 295 295 295 295 296 295 294 294
293 292 293 291 290 290 289 290 290 290 290 291 291 291 291 291 291 290 290 290 289 289 288 288 287 287 288 289 289 288 288 287 287 288 288 288 288 289 290 291 291 292 294 295 295 295 295 295 295 292 293 295 296 297 296 295 295 296 296 296 295 292 295 297 295 295 296 296 295 295 295 295 294 294
295 294 291 292 293 292 291 291 290 290 289 289 288 289 289 289 289 290 289 289 288 288 287 287 287 287 287 286 286 287 287 286 287 287 288 287 288 288 290 290 289 290 292 293 294 294 293 295 294 294 294 295 294 296 296 296 295 294 294 295 294 295 296 295 295 295 295 295 294 294 294 293 293 294
293 292 292 291 291 290 288 287 288 288 288 287 288 288 289 288 288 288 288 286 286 286 286 285 285 285 285 285 286 286 287 286 286 287 288 287 287 288 289 288 288 288 288 289 291 292 293 294 294 294 294 294 295 294 294 293 294 294 293 293 293 293 294 294 294 295 295 294 293 293 293 292 291 291
289 289 288 288 288 287 287 287 286 286 287 286 286 286 287 287 287 287 286 286 285 285 285 285 284 284 285 284 285 285 286 286 287 287 286 286 287 287 287 287 288 288 289 289 290 290 291 293 294 295 296 295 295 295 295 293 291 292 292 292 292 292 293 293 295 294 294 294 293 290 289 289 291 292
288 288 287 287 287 287 287 286 286 286 286 286 286 286 286 286 286 285 285 285 284 284 284 284 284 284 284 284 285 285 285 285 286 287 287 287 287 287 286 287 287 287 288 289 289 290 290 291 292 292 293 293 293 294 294 294 292 291 292 292 292 291 292 293 293 294 294 293 293 290 289 288 288 291
287 287 287 287 286 287 286 286 286 286 285 286 286 286 285 285 285 285 284 284 285 284 284 283 283 284 284 284 284 285 285 285 285 286 286 286 286 286 287 286 286 287 288 289 289 290 290 290 290 289 288 288 288 287 289 293 292 291 289 288 292 291 292 293 293 293 293 292 292 291 288 287 288 290
287 287 287 287 287 287 286 286 286 286 286 286 285 286 285 285 284 285 284 285 285 284 284 284 284 284 285 285 285 285 285 285 285 285 285 286 286 286 285 286 286 286 287 288 289 290 290 289 289 288 287 286 286 285 287 289 290 291 291 288 289 292 291 293 293 291 291 292 291 290 290 288 289 290
287 287 287 287 286 286 286 286 286 285 285 285 285 285 285 285 285 285 286 286 284 284 284 284 284 284 285 285 285 285 285 285 285 285 285 285 285 285 285 285 286 286 286 288 288 288 289 289 289 287 287 286 285 286 286 289 290 291 291 290 288 289 291 290 290 289 290 290 288 289 289 288 288 289
288 287 287 286 286 287 286 286 286 285 286 285 285 285 285 285 285 285 285 284 285 284 284 284 284 284 284 285 285 285 284 285 285 285 285 285 285 285 285 285 285 286 286 286 288 289 289 289 289 288 286 286 286 287 287 287 288 290 290 290 290 289 289 287 288 288 288 288 288 288 288 288 289 287
287 287 287 287 286 286 286 286 286 286 286 286 285 286 286 285 285 285 284 283 283 283 283 282 283 284 284 284 285 285 285 284 284 284 284 284 284 284 285 285 285 285 285 286 286 288 289 289 289 288 287 287 288 289 289 288 289 289 289 291 290 290 289 289 290 289 289 290 291 289 288 289 288 289
287 287 287 287 287 287 286 286 286 286 286 286 286 285 285 285 285 284 283 283 282 282 282 281 281 282 283 283 284 285 284 284 284 284 284 284 284 284 284 284 286 286 285 285 287 287 289 290 289 285 285 287 286 287 288 288 288 289 289 290 289 289 289 290 293 292 289 290 291 289 288 287 287 288
287 287 287 288 288 287 287 286 286 286 286 286 286 285 285 284 284 283 281 281 281 280 281 281 279 279 279 280 281 283 283 284 284 283 283 283 284 284 284 284 285 286 285 285 286 286 289 290 288 288 289 288 290 289 287 287 286 288 288 289 290 289 289 289 289 289 293 292 289 288 289 289 290 288
287 287 287 288 288 288 287 287 286 286 285 285 285 284 284 282 282 282 281 281 280 281 280 280 278 279 278 277 278 280 282 282 282 282 282 282 283 283 284 285 284 285 285 285 286 286 287 288 289 287 288 289 288 287 287 286 287 288 288 289 289 290 290 289 288 288 288 287 288 288 289 289 288 286
288 288 288 288 288 288 288 287 286 286 286 284 284 283 283 283 282 280 280 280 281 281 280 280 280 281 280 279 278 280 281 282 281 281 282 282 281 282 283 284 283 284 284 285 286 287 287 288 288 287 288 287 287 288 287 287 288 288 288 288 288 289 289 290 290 288 288 287 287 287 286 286 287 287
288 288 288 288 288 287 287 287 286 286 285 284 283 283 282 282 282 281 280 280 280 280 280 281 281 281 281 281 283 284 283 283 282 282 281 282 283 283 283 283 284 284 285 285 285 286 287 287 288 288 288 287 287 287 287 287 288 288 288 288 288 289 290 290 290 290 289 289 288 286 286 286 287 287
Wind_Speed
7 6 7 7 6 6 5 5 5 6 6 7 8 9 10 9 8 7 7 8 6 5 5 4 4 5 4 4 3 4 4 3 4 3 4 5 5 7 9 9 9 8 8 7 7 7 7 7 7 7 7 7 6 6 6 6 5 5 4 3 2 2 2 3 1 2 2 4 3 4 3 3 2 2
6 6 6 6 5 5 6 6 6 6 7 7 8 7 6 8 10 8 8 8 7 5 4 5 3 4 5 4 4 3 4 4 5 3 4 4 5 7 9 9 9 9 9 8 8 8 8 8 7 7 7 7 6 6 6 5 4 4 3 3 2 3 2 2 2 2 2 1 4 3 3 3 3 3
6 7 8 5 6 6 6 6 5 6 6 7 7 6 6 6 7 9 6 5 5 5 6 6 3 4 5 5 4 3 3 4 5 4 4 4 5 7 6 9 9 9 9 9 8 8 8 9 9 8 7 6 6 5 4 4 4 4 4 4 4 4 3 3 3 4 5 5 4 4 5 5 5 5
6 8 8 7 6 5 5 5 5 6 6 6 7 7 6 6 5 6 7 6 6 6 6 5 4 4 6 5 6 4 3 3 5 3 3 3 3 4 4 7 8 9 9 8 8 8 9 9 8 7 7 6 6 5 6 6 6 5 5 5 5 5 5 5 5 6 8 8 8 8 8 7 6 6
6 7 7 7 6 6 7 6 5 5 6 6 6 6 5 6 5 7 6 6 3 1 1 3 5 4 6 4 5 6 5 5 3 3 2 2 3 3 3 4 7 8 8 8 8 8 8 8 7 7 7 7 7 7 7 8 8 8 8 8 8 8 8 8 8 8 9 10 10 10 9 8 7 7
6 7 7 7 6 6 7 7 6 6 6 7 5 5 6 6 6 5 5 4 5 5 2 3 2 4 4 4 4 7 8 6 4 4 3 2 2 3 3 3 4 7 8 8 9 8 8 7 7 7 7 7 7 8 8 9 10 11 11 11 11 11 11 11 11 10 11 12 11 10 9 8 8 8
5 6 6 6 5 4 6 6 5 6 6 6 7 7 6 7 6 6 5 5 4 6 5 3 5 5 5 6 6 6 4 4 4 5 5 4 3 3 3 4 4 6 8 9 9 9 9 9 9 8 8 8 8 9 11 11 12 12 12 13 13 13 13 13 13 13 13 13 12 10 10 10 10 10
7 7 7 7 6 7 7 6 6 5 6 6 6 7 7 7 7 6 5 5 5 5 6 5 6 4 6 4 2 4 3 5 4 4 3 3 4 4 4 5 5 6 9 10 11 11 10 10 10 10 10 10 11 12 12 13 13 13 13 13 14 14 14 14 14 14 14 14 13 12 11 12 13 13
8 8 8 7 7 8 7 6 6 7 8 6 6 7 7 7 6 5 6 5 4 6 7 4 1 2 2 1 2 5 6 3 3 3 5 4 4 5 5 4 5 8 9 10 11 11 12 12 12 12 12 13 13 14 14 14 14 15 15 15 15 15 15 15 15 15 15 14 14 14 14 14 15 15
8 9 8 8 8 8 8 7 7 7 8 7 7 7 7 6 6 6 6 5 5 6 5 6 4 3 5 3 2 3 4 5 4 3 3 3 4 4 5 6 4 4 4 4 5 8 10 12 13 13 13 14 14 15 15 14 15 15 16 15 15 15 15 15 15 15 15 15 15 16 16 15 16 17
8 9 8 8 8 8 7 7 8 8 7 7 8 8 8 6 7 7 7 6 6 5 5 3 3 4 2 3 5 2 4 3 4 5 3 6 5 5 6 6 4 4 5 7 10 9 8 8 8 10 14 15 16 16 16 16 17 17 16 15 16 16 16 17 17 17 17 17 17 17 16 16 16 17
7 7 7 7 7 7 6 7 7 7 7 6 8 7 6 7 7 7 6 6 6 5 5 5 5 3 4 2 2 3 5 4 2 5 7 9 7 8 5 6 5 3 4 5 5 6 7 9 10 12 13 15 16 16 16 18 18 19 18 17 17 18 18 19 19 18 18 17 17 17 16 16 16 15
5 5 5 6 6 6 5 5 6 7 7 8 8 6 6 7 7 7 6 6 6 5 5 5 3 5 5 6 6 6 6 9 10 7 8 8 4 1 4 4 4 5 5 4 4 6 6 6 7 6 7 10 13 14 18 15 18 18 17 17 17 18 18 19 18 18 17 17 17 16 16 16 17 16
4 4 4 4 6 7 8 7 6 3 3 3 3 3 7 7 4 5 7 6 6 6 7 7 7 7 7 8 9 9 8 3 3 4 6 8 3 1 4 5 4 4 6 5 6 8 4 6 7 6 7 8 7 6 6 8 10 12 15 16 17 18 19 19 18 18 18 18 17 17 17 17 16 14
5 4 4 5 7 7 7 7 8 7 6 3 3 8 11 11 12 10 8 7 8 8 8 6 6 8 8 9 8 7 5 4 5 4 5 4 3 4 3 6 3 2 5 4 3 7 2 5 7 6 6 7 6 5 7 11 12 15 15 15 15 16 17 17 17 17 17 17 17 17 16 16 14 14
6 5 5 4 3 5 7 7 7 8 9 9 9 8 6 2 2 1 7 9 7 7 7 7 9 8 8 6 6 5 5 5 4 4 5 5 5 5 5 4 4 0 2 4 2 7 1 4 4 6 6 4 4 6 8 11 12 13 14 14 14 15 15 15 15 15 16 16 16 16 15 15 16 18
6 6 5 4 3 3 9 7 7 8 9 12 14 13 13 12 9 7 4 1 6 7 8 7 6 5 4 5 4 5 4 4 5 4 4 4 4 5 5 5 3 1 3 2 2 5 2 2 2 5 6 4 3 6 7 10 10 11 11 12 12 13 13 14 14 14 15 15 15 15 15 17 18 19
6 6 6 6 4 4 5 6 8 8 8 8 8 9 8 8 10 12 12 10 9 5 5 7 6 1 2 5 4 3 5 6 6 6 6 4 5 5 6 3 2 1 0 1 0 3 5 1 1 4 5 3 4 4 7 10 11 10 11 10 10 11 12 12 13 13 13 13 14 14 15 17 18 19
5 5 5 6 7 5 5 5 8 9 9 9 8 9 9 8 8 9 10 9 6 7 7 8 8 5 5 5 5 3 2 2 3 4 5 6 4 3 1 2 1 2 2 0 2 4 3 1 3 4 5 5 5 5 8 11 13 13 12 12 12 12 12 12 13 13 13 12 13 14 14 15 16 16
5 4 6 7 6 6 7 8 11 12 10 12 13 13 10 8 7 9 9 11 12 10 8 7 7 6 7 8 7 5 3 3 3 4 4 4 3 2 3 3 4 3 2 3 3 1 3 4 3 5 5 5 6 7 6 11 9 7 7 7 8 9 10 10 11 11 11 11 12 12 13 14 15 13
5 4 5 6 6 7 7 9 13 11 11 9 10 10 10 9 9 8 7 13 16 17 17 16 15 15 15 16 16 16 14 8 4 4 8 7 4 5 1 1 2 1 3 5 5 1 4 2 3 5 4 5 7 6 6 4 3 6 6 6 8 8 9 8 8 8 8 9 10 11 12 14 13 13
5 6 9 6 6 7 6 9 11 10 11 10 9 10 10 9 9 6 4 6 9 16 16 16 16 16 16 17 18 18 18 16 10 6 6 1 2 4 3 1 1 3 2 3 4 2 3 3 3 4 4 5 4 5 2 3 4 7 9 11 11 10 9 9 9 8 8 8 9 10 12 13 13 10
5 6 8 9 6 6 7 10 10 8 9 10 9 9 10 9 8 4 4 8 9 8 10 10 11 12 12 12 11 11 16 15 11 8 5 3 5 5 3 1 1 2 0 1 4 3 3 4 2 3 6 2 3 1 1 4 6 5 5 6 8 8 9 10 8 8 8 7 8 10 12 13 12 6
6 6 5 7 10 11 12 11 11 7 7 10 8 7 8 10 8 4 6 6 7 8 8 8 8 8 6 7 7 7 8 9 9 8 6 4 3 4 3 2 1 1 2 0 5 3 3 1 4 2 2 5 3 2 6 6 5 7 7 6 7 8 9 9 7 7 6 7 7 9 11 12 12 5
6 6 6 6 9 11 13 14 14 13 12 9 7 6 7 7 9 7 7 8 10 8 8 7 7 6 6 7 6 6 7 7 6 6 6 5 3 2 2 2 2 3 3 1 6 4 2 3 4 3 3 3 6 7 3 4 5 6 5 3 5 6 5 5 4 4 4 5 6 8 10 12 12 7
7 6 6 6 9 14 14 14 15 16 15 15 11 11 14 14 11 8 7 6 7 7 6 6 6 6 6 6 6 7 7 7 6 5 5 4 3 2 1 1 1 2 2 3 9 4 3 3 3 5 4 5 7 5 8 6 3 3 5 3 2 4 3 4 4 3 3 2 2 4 6 9 9 9
7 6 7 7 13 17 18 17 16 15 17 14 11 15 14 13 13 10 6 6 7 7 6 7 6 6 5 6 6 6 5 5 5 4 4 4 3 3 3 3 1 2 4 5 3 2 1 2 2 4 5 6 7 8 6 7 7 4 6 6 6 4 2 3 3 3 3 2 2 3 5 8 8 9
9 8 7 9 15 17 18 20 19 17 14 11 14 13 14 12 10 7 7 7 7 7 7 6 6 5 5 4 5 5 4 4 4 2 3 3 4 4 3 3 2 2 3 3 3 2 0 2 4 2 4 5 5 5 7 5 5 6 7 7 3 3 3 2 3 2 1 1 1 3 5 6 6 6
10 12 15 16 15 15 16 17 16 15 14 14 13 13 12 10 6 6 6 6 5 6 6 5 5 5 5 4 4 3 3 2 2 2 3 3 3 3 2 2 3 3 2 3 3 2 1 2 4 6 4 3 4 6 6 8 6 6 5 7 7 6 4 1 2 3 2 2 3 4 6 7 7 8
16 17 17 17 16 14 11 10 9 9 9 13 14 13 11 6 5 5 5 5 6 6 5 5 5 4 3 4 3 3 3 6 7 6 5 5 7 7 5 4 4 4 3 3 2 2 2 2 3 3 4 5 4 6 5 7 6 6 5 5 6 6 1 0 1 2 3 4 4 5 5 6 7 6
10 12 13 13 13 13 15 14 11 9 8 9 8 7 7 6 6 6 5 5 6 5 5 5 5 4 3 3 4 6 6 7 6 6 5 4 5 5 3 5 6 5 4 2 2 3 4 4 2 2 2 3 3 2 3 2 5 5 6 5 5 6 6 4 2 2 3 4 3 4 4 4 3 2
6 7 9 11 7 8 8 7 6 6 7 7 7 6 6 6 7 8 10 9 7 6 5 5 4 4 5 6 6 5 7 7 7 7 6 6 4 4 2 3 5 4 5 7 5 4 3 3 5 3 4 3 2 3 3 2 3 5 6 5 5 5 3 5 4 2 3 4 4 5 5 5 5 3
5 6 8 7 7 7 7 6 7 7 7 7 7 7 6 6 6 6 6 6 6 5 6 6 6 5 6 6 6 6 7 7 7 7 6 6 3 2 5 6 5 6 6 6 6 7 7 7 4 4 2 2 1 1 3 5 6 7 7 7 7 6 6 5 4 3 1 4 5 5 5 3 4 4
6 5 6 5 5 5 6 7 7 7 7 6 5 6 6 6 7 7 7 6 6 5 6 5 6 6 5 6 6 6 6 5 6 6 6 6 6 6 5 5 5 4 4 4 5 7 7 8 7 3 3 3 4 6 5 7 9 8 7 6 6 6 6 5 5 3 3 3 4 3 2 1 2 3
2 3 6 6 6 6 6 7 7 6 6 6 5 4 4 5 6 6 6 5 4 5 6 6 6 5 5 5 5 5 5 5 5 7 7 6 6 5 4 5 5 5 5 5 6 7 7 7 7 7 7 6 3 4 7 6 8 10 7 5 4 5 5 5 6 5 2 0 1 3 0 2 2 1
3 3 6 6 6 6 7 6 5 6 6 5 4 4 5 5 4 5 5 4 5 5 6 6 5 5 5 5 5 5 5 5 6 6 5 5 5 4 4 4 5 5 4 5 7 7 7 8 8 8 7 8 7 5 2 6 7 7 8 7 6 6 5 5 5 6 5 4 2 1 1 1 2 1
4 4 6 6 5 5 6 5 5 5 4 4 3 3 4 5 3 4 4 4 6 5 6 5 5 5 5 5 5 5 5 5 4 4 4 4 4 5 5 6 6 5 6 5 5 5 7 8 7 6 6 6 7 6 7 2 3 2 7 5 4 3 3 3 4 5 5 5 5 5 3 2 3 3
6 5 6 5 5 5 5 5 5 4 4 3 4 4 5 4 4 4 4 6 6 6 6 6 5 5 5 4 5 4 4 3 3 4 4 5 5 5 4 5 6 7 7 6 5 5 4 4 6 4 4 4 5 6 8 4 2 2 6 4 2 2 3 3 2 2 4 5 5 4 3 3 2 2
6 6 6 6 5 5 4 4 4 4 3 3 3 4 4 4 4 4 4 4 5 5 5 6 5 4 4 4 3 3 4 4 5 5 4 4 3 4 6 7 7 7 7 6 5 4 4 3 6 5 3 3 4 5 4 5 5 3 4 7 4 2 3 1 1 2 4 2 2 3 4 2 2 3
5 5 5 5 5 4 5 4 4 4 4 4 4 4 4 4 3 4 4 4 4 4 4 4 3 3 3 2 2 2 3 4 3 3 3 3 4 5 5 6 5 5 5 4 4 5 4 4 5 6 5 5 5 4 5 6 5 2 2 3 8 5 2 2 2 2 2 3 2 1 2 0 2 1
5 6 5 5 5 4 5 5 4 5 5 4 5 3 5 5 5 3 3 3 3 3 3 2 2 2 2 2 3 2 2 1 2 2 4 4 5 4 4 3 2 2 3 4 4 5 5 5 6 7 7 5 5 4 2 2 3 3 2 2 4 6 7 5 2 2 1 1 2 2 3 2 1 1
5 5 4 4 5 4 5 5 4 5 4 4 4 3 4 3 3 3 3 2 3 2 2 1 1 2 1 1 0 0 1 2 3 4 4 4 3 3 2 2 3 3 3 5 5 5 6 5 6 5 3 1 1 3 5 4 3 3 2 1 1 2 6 7 8 5 2 2 2 2 1 0 0 2
5 5 5 4 4 4 4 4 4 4 4 4 3 2 3 3 2 2 2 2 2 3 3 2 1 1 1 1 0 1 2 3 3 2 1 1 1 2 3 3 3 3 3 4 5 4 5 4 3 3 1 1 1 1 3 2 1 1 2 2 2 2 1 4 4 6 7 7 5 3 2 1 2 3
4 4 4 4 4 4 4 4 4 3 4 2 2 2 2 3 4 3 2 2 3 2 1 2 1 2 2 2 1 1 2 2 0 0 2 2 2 2 2 3 3 3 3 3 4 4 3 3 2 2 2 2 2 2 3 2 1 1 1 1 1 2 3 2 1 1 2 6 6 6 6 5 3 3
3 4 4 3 4 3 3 4 4 3 2 2 2 3 3 3 3 2 2 2 2 2 2 3 2 2 1 1 1 3 2 1 1 0 0 1 1 1 1 2 3 3 3 3 3 4 3 3 2 2 2 2 2 1 1 1 2 2 2 2 2 2 2 2 2 2 1 0 2 4 3 3 4 4
Wind_Direction
192 189 179 190 187 192 188 188 177 170 163 169 171 172 167 167 144 164 197 214 223 216 186 185 205 178 164 163 175 170 178 185 193 190 183 169 164 177 179 184 181 176 172 173 174 172 168 168 170 174 177 176 177 180 176 175 179 186 197 220 224 215 196 185 218 293 247 226 163 116 128 150 181 227
181 190 180 184 180 180 180 190 172 168 171 168 177 182 176 161 161 166 178 211 207 203 186 204 177 179 172 158 166 185 184 193 185 197 189 190 180 189 195 191 188 183 182 181 185 185 186 188 192 194 195 196 195 194 192 197 206 215 242 267 281 260 265 250 253 256 262 154 133 169 193 217 231 237
179 186 194 181 180 172 183 175 167 168 166 174 174 174 159 187 168 165 168 174 237 188 194 212 207 164 165 162 152 174 186 199 182 190 198 204 197 196 209 206 199 195 193 191 194 199 201 206 206 209 211 212 212 213 218 227 237 249 259 274 278 273 274 267 263 258 248 235 230 227 224 234 239 245
188 189 195 190 183 164 159 165 170 169 171 166 170 173 174 175 162 154 157 170 194 193 196 179 173 160 145 159 160 172 188 207 203 195 212 208 204 213 217 223 219 210 206 206 208 212 213 217 219 221 225 227 226 225 230 232 237 245 249 255 258 257 260 260 249 252 253 251 249 249 241 234 239 239
186 190 197 195 190 156 162 166 160 164 160 159 171 168 162 168 156 160 157 157 122 95 359 157 170 151 139 167 181 170 180 189 194 197 222 224 217 219 226 234 235 234 227 224 226 229 233 231 230 230 233 237 236 234 232 231 232 234 233 233 236 235 236 236 236 237 242 245 245 244 243 229 231 236
188 192 198 198 182 179 157 154 164 167 161 166 155 175 173 180 173 180 143 156 147 179 153 136 58 138 186 166 186 186 180 188 174 205 213 216 226 233 237 242 248 243 244 242 241 241 243 246 244 244 241 241 246 247 245 240 237 236 233 231 231 233 229 228 228 227 228 234 241 233 229 212 219 226
181 191 200 198 174 132 162 170 162 161 173 168 173 179 180 188 182 183 179 138 159 167 203 179 163 174 174 197 182 194 185 166 176 195 210 210 210 225 224 239 244 245 245 245 246 247 244 242 240 237 237 239 238 241 244 244 243 242 241 239 237 237 236 234 231 230 228 229 231 230 218 209 212 217
185 197 198 198 169 163 175 169 161 167 161 171 181 187 186 190 184 185 185 189 151 169 166 208 189 174 162 206 145 154 155 167 180 206 207 202 220 221 222 226 239 236 237 240 242 244 244 242 241 238 236 235 235 238 241 242 244 245 245 244 242 240 238 237 234 233 231 229 229 226 218 211 214 216
194 198 202 188 165 166 173 168 170 172 174 174 173 186 185 192 187 172 188 184 147 148 190 167 154 135 182 146 141 166 165 172 181 189 211 215 219 225 227 230 236 245 238 242 242 243 242 241 239 239 237 236 236 237 238 239 239 241 242 242 243 243 241 240 238 235 233 230 226 226 219 213 216 219
195 199 199 191 177 175 174 179 175 176 181 172 180 183 180 189 174 185 186 175 170 179 177 157 147 181 170 168 171 183 181 159 180 208 225 235 225 217 235 230 225 223 227 227 238 243 247 244 243 244 243 243 245 246 246 246 246 246 246 245 246 247 247 245 243 240 235 231 227 223 222 214 216 220
199 200 200 196 188 186 186 174 176 175 182 180 189 188 183 177 167 187 187 170 175 176 148 143 179 151 181 143 179 146 170 155 174 186 188 249 222 213 218 242 209 211 234 237 234 240 242 247 244 241 242 245 246 248 248 248 248 248 248 247 246 247 248 246 244 241 237 232 228 223 220 217 213 217
198 194 190 192 190 194 185 177 179 177 179 186 191 193 179 173 175 186 169 179 178 168 178 180 170 168 151 138 55 100 140 162 231 209 192 221 223 215 215 232 227 201 214 245 246 241 246 251 249 253 254 250 246 246 249 247 247 247 245 243 242 243 243 243 242 241 241 238 233 226 222 218 214 212
197 195 190 189 187 197 179 180 184 196 190 181 192 194 177 179 192 181 169 185 171 176 171 177 137 148 164 175 154 151 177 194 206 178 185 227 234 165 239 240 208 213 227 239 242 248 212 242 237 229 242 245 240 243 242 251 250 249 249 247 247 247 248 248 248 247 245 243 241 233 226 222 216 209
177 169 157 173 173 162 149 138 128 150 231 247 257 192 167 154 141 189 195 189 180 171 177 193 167 162 190 186 191 191 203 140 74 135 164 219 198 146 261 277 222 189 203 223 244 249 193 211 251 226 241 257 231 247 238 235 245 250 246 245 246 247 248 248 248 247 244 243 239 234 229 224 218 207
157 135 136 143 147 134 112 112 117 119 122 140 182 181 194 191 185 184 190 207 181 179 198 176 171 193 196 203 192 201 154 169 178 169 177 187 152 204 215 265 336 221 192 208 252 278 156 190 242 251 247 255 251 245 253 260 254 252 254 252 249 249 249 250 250 248 247 244 240 235 230 225 215 205
154 138 129 124 118 139 145 130 111 97 98 106 103 98 88 41 2 178 191 190 185 192 181 172 200 190 202 177 172 183 173 175 170 167 158 168 182 191 212 236 233 248 164 172 213 274 145 196 234 266 258 257 261 252 257 258 255 256 258 259 259 258 257 256 255 251 247 243 239 233 227 218 208 207
146 143 126 114 109 141 139 123 113 111 96 89 88 84 77 62 61 67 52 314 221 189 176 176 166 189 155 146 190 185 168 138 166 160 173 182 188 191 216 233 263 272 182 147 208 275 280 129 224 259 274 283 268 274 261 262 269 271 268 264 261 259 257 255 253 251 247 242 237 230 221 214 211 210
143 153 145 136 132 121 118 122 118 108 98 91 70 57 49 54 40 40 39 53 74 103 144 138 134 132 168 135 137 138 142 142 160 159 191 170 183 184 213 224 208 353 92 147 48 294 286 120 266 272 289 304 298 284 297 300 297 291 287 291 291 285 281 276 271 264 257 248 239 229 221 216 215 214
117 134 137 137 137 134 125 119 127 117 109 96 83 67 54 47 48 40 26 23 36 68 78 83 89 87 66 85 88 97 112 112 105 146 151 166 160 169 161 139 53 73 11 199 188 258 295 360 311 295 303 323 314 310 310 311 304 312 326 320 308 298 288 280 273 265 258 249 239 231 222 217 216 213
77 103 131 137 130 128 121 119 119 122 120 107 100 93 79 61 50 54 44 47 54 57 60 62 67 67 71 73 77 76 105 106 110 102 94 72 42 95 54 41 353 84 60 33 37 333 302 326 320 313 323 318 311 305 308 293 311 339 309 292 281 273 268 266 261 256 250 242 235 228 218 214 213 201
89 87 104 112 127 122 121 128 128 131 118 103 103 101 101 96 80 67 56 59 66 71 73 75 74 71 66 61 57 55 57 66 83 81 56 25 1 57 82 336 357 360 24 31 7 3 297 326 338 309 293 297 284 282 272 304 338 302 318 321 330 325 317 306 292 276 257 242 231 222 210 207 202 187
68 70 83 105 109 117 118 130 125 133 120 109 114 116 113 104 94 84 66 91 81 83 79 75 70 63 61 60 56 50 49 47 44 64 92 143 92 79 65 98 312 320 14 44 328 320 261 320 280 289 268 263 237 241 279 305 329 353 338 339 337 344 342 332 313 296 274 249 232 219 205 201 188 180
67 60 46 58 76 94 114 119 129 140 127 121 129 129 112 106 101 114 145 109 97 82 75 62 63 53 49 52 56 47 48 49 52 52 76 83 85 100 82 101 347 357 213 64 351 353 290 309 280 344 325 299 298 318 259 349 355 333 328 323 322 353 360 345 329 310 290 257 233 215 201 191 180 180
50 41 52 54 64 90 94 94 92 86 107 123 130 124 114 118 114 159 108 90 99 92 88 80 70 71 62 62 60 54 49 46 44 45 41 44 80 105 118 114 147 212 266 32 20 358 274 272 301 340 279 308 309 332 336 329 333 315 311 331 321 339 343 344 341 332 296 264 233 211 197 186 181 163
68 45 39 34 46 78 88 91 88 86 77 79 82 75 98 94 127 130 103 93 89 89 85 80 72 66 60 57 55 53 52 46 38 36 33 30 27 62 131 164 191 225 255 55 24 16 325 330 303 331 315 288 287 306 290 304 302 296 329 345 317 321 329 323 330 328 326 272 238 208 197 188 182 171
61 56 48 40 39 54 61 70 82 85 85 83 76 77 91 101 106 97 94 96 87 81 79 78 68 60 52 49 45 41 40 33 29 28 24 19 8 10 355 322 256 227 268 26 32 14 338 318 329 334 319 322 304 317 314 316 319 314 330 291 294 294 313 312 320 326 335 318 266 213 199 184 167 164
73 61 63 59 62 68 63 56 52 60 74 74 83 89 87 88 90 92 81 82 80 74 70 66 63 53 48 48 45 38 31 22 18 25 26 13 6 356 345 348 343 285 307 321 7 32 202 260 295 315 312 317 309 317 309 309 319 322 310 325 321 308 314 311 308 323 329 313 285 116 133 153 157 153
84 79 68 76 77 78 79 79 72 56 52 74 81 82 83 78 75 78 80 72 77 81 73 67 60 52 42 49 46 34 22 16 0 18 31 7 9 358 342 338 332 346 326 329 339 24 181 287 306 287 310 303 298 297 303 296 296 312 316 320 297 286 311 308 308 313 321 285 205 174 167 166 159 139
95 99 93 85 79 75 74 74 75 75 72 71 72 76 78 79 74 76 82 89 88 75 73 77 77 65 51 52 51 32 19 16 37 41 11 358 11 11 5 351 12 0 359 345 352 342 323 308 306 311 304 266 291 295 299 306 313 310 331 328 333 327 314 319 290 295 275 241 209 191 190 178 170 172
93 90 85 78 72 67 67 67 67 72 70 71 68 66 65 63 68 69 87 87 79 85 87 81 77 68 59 49 38 41 37 44 31 15 8 2 11 5 4 24 33 20 8 357 353 345 306 264 269 288 293 292 277 291 302 323 321 321 329 335 311 298 152 289 280 254 248 237 218 211 204 195 188 181
81 83 88 91 86 84 75 72 70 67 59 58 52 51 54 58 59 55 54 69 81 83 83 78 67 58 51 50 46 36 39 42 27 19 14 20 16 4 355 39 19 2 1 38 32 2 339 319 301 223 244 280 280 253 305 302 303 327 333 333 340 335 320 324 271 245 248 248 228 216 206 202 206 226
73 85 88 84 86 86 76 71 63 57 58 55 53 47 47 51 57 67 73 69 68 62 66 73 71 57 49 47 41 41 46 43 29 19 25 27 13 7 334 58 25 351 345 358 3 9 14 347 319 288 229 230 274 334 334 307 341 338 326 328 327 309 316 326 317 281 233 213 217 218 207 194 192 182
61 61 66 75 74 79 93 86 78 71 68 57 50 49 49 50 53 51 48 58 55 57 63 61 60 55 53 50 43 45 48 39 33 23 35 33 19 354 41 54 35 18 3 350 346 342 346 344 339 313 261 201 150 348 353 1 359 356 341 337 340 338 344 343 326 315 228 216 230 221 205 144 121 135
77 73 80 71 86 83 87 83 74 68 66 68 55 49 49 49 59 62 64 64 64 60 64 63 60 54 53 49 41 42 43 39 40 36 40 34 23 36 29 33 24 10 6 354 354 358 344 340 343 28 62 70 90 45 35 32 7 353 341 330 343 339 339 338 336 320 231 242 226 225 196 134 139 136
73 106 90 81 70 69 71 74 74 74 75 73 75 56 46 45 58 63 64 62 67 64 68 63 61 57 57 56 47 47 39 38 31 30 33 38 34 37 32 36 22 12 7 4 2 4 1 3 358 3 8 30 64 88 70 50 18 1 346 347 347 336 345 351 354 2 317 278 194 218 139 75 106 202
46 72 87 78 74 73 72 63 65 69 79 76 77 84 76 60 53 64 64 57 70 72 69 70 65 61 59 58 53 47 37 37 39 29 24 22 21 20 28 28 14 2 359 11 5 4 9 19 21 25 20 8 8 357 27 68 68 22 4 347 349 359 349 6 19 32 43 58 44 45 279 6 108 105
81 70 75 82 73 75 83 74 76 75 75 80 75 75 88 86 71 73 79 80 76 72 73 74 71 64 59 58 56 51 42 40 40 33 28 20 20 22 18 15 10 3 1 357 1 359 12 15 20 29 22 13 10 353 336 335 345 13 29 343 331 351 354 350 13 29 26 37 51 42 38 40 34 39
103 87 89 83 85 81 84 85 86 83 75 80 96 95 92 95 89 83 88 83 78 79 75 73 74 70 63 57 60 57 58 58 57 42 33 21 23 22 21 11 9 12 359 351 358 359 356 5 13 19 25 9 352 346 341 329 330 49 40 5 331 323 357 16 23 26 35 41 50 35 55 72 40 353
97 101 99 103 97 99 98 95 100 100 99 104 100 101 100 89 83 74 67 75 82 82 80 77 69 67 71 67 68 67 58 52 44 37 28 27 21 20 17 17 10 6 355 348 340 347 348 352 357 354 346 327 324 314 303 299 310 340 353 4 347 348 13 5 351 25 31 25 43 74 78 108 135 101
83 88 99 102 98 93 91 94 92 98 103 99 96 87 93 87 82 85 80 78 73 76 81 83 91 85 76 70 69 70 61 50 41 19 4 3 17 23 22 14 6 349 343 335 336 340 347 338 338 332 318 285 261 271 287 278 273 274 274 346 25 42 10 342 11 13 33 13 344 32 45 98 68 44
102 96 85 96 95 94 101 91 101 104 99 98 92 83 75 84 81 72 80 79 84 83 85 89 105 105 90 64 49 37 43 38 32 26 18 17 15 13 356 334 329 356 336 325 334 330 333 331 312 297 272 271 275 264 239 307 341 352 356 4 4 25 35 37 23 25 56 341 25 42 39 26 16 18
103 102 95 98 102 99 103 107 109 104 99 92 85 86 70 62 71 91 81 81 84 92 98 88 44 60 43 48 75 24 34 23 15 22 22 11 352 337 332 345 338 336 349 331 329 316 302 319 311 301 293 274 326 346 350 357 348 348 345 324 319 33 44 47 61 62 56 27 8 20 9 45 161 48
91 97 94 87 85 92 98 101 97 92 86 78 85 90 93 85 78 77 72 76 72 74 63 58 52 96 151 200 161 60 39 28 28 16 350 346 332 325 327 334 331 321 316 302 298 293 302 309 316 328 324 36 34 348 354 350 323 326 11 22 358 329 21 63 59 69 62 47 35 29 3 360 3 36
85 95 94 94 91 90 89 94 91 86 99 101 102 85 86 94 78 67 71 68 67 66 90 108 98 75 67 48 89 123 72 44 203 230 357 347 300 302 318 323 322 324 316 311 315 320 328 333 350 336 6 21 356 8 359 334 20 17 14 13 352 359 359 356 23 90 92 65 45 42 33 16 338 331
70 85 96 88 81 80 87 87 96 106 107 107 99 93 95 82 91 87 76 79 81 76 65 64 67 60 74 103 75 52 21 9 47 60 259 340 360 343 348 337 332 337 339 338 328 327 342 336 344 352 26 23 23 15 352 351 357 359 24 17 26 11 10 2 15 13 355 12 38 38 18 14 3 29